User: anonymous   Login
Location: Caltech
(34.1382°N, 118.1253°W)
Time: 13:06:34
(UTC-08:00)
Language:

Iridium 62 - Orbit

View from above orbital plane
View from above orbital plane
View from above satellite
View from above satellite

Ground track
Ground track

The orbit data is extracted from the following two-line orbital elements,

1 25285U 98021A   18050.68252673 +.00000159 +00000-0 +49713-4 0  9998
2 25285 086.3965 120.5155 0002060 095.6066 264.5365 14.34219997040509
Epoch (UTC): 19 February 2018 16:22:50
Eccentricity: 0.0002060
inclination: 86.3965°
perigee height: 776 km
apogee height: 779 km
right ascension of ascending node: 120.5155°
argument of perigee: 95.6066°
revolutions per day: 14.34219997
mean anomaly at epoch: 264.5365°
orbit number at epoch: 4050

The dashed part of the orbit path shows where the satellite is in the earth's shadow,  

DLR